OpenBCM V1.13 (Linux)

Packet Radio Mailbox

DB0FHN

[JN59NK Nuernberg]

 Login: GUEST





  
LU9DCE > KEP      31.03.19 19:34l 254 Lines 12350 Bytes #999 (0) @ WW
BID : 20813_LU9DCE
Read: DF7EAV DK3UZ GUEST
Subj: TLE 31 03
Path: DB0FHN<DB0BLO<DB0ERF<IZ3LSV<IW0QNL<JH4XSY<JM1YTR<JE7YGF<GB7CIP<N3HYM<
      LU3DVN<LU9DCE
Sent: 190331/1800Z 20813@LU9DCE.TOR.BA.ARG.SOAM LinBPQ6.0.18

            __    _  _  ___  ____   ___  ____    ____  ____  ____
           (  )  / )( \/ _ \(    \ / __)(  __)  (  _ \(  _ \/ ___)
           / (_/\) \/ (\__  )) D (( (__  ) _)    ) _ ( ) _ (\___ \
           \____/\____/(___/(____/ \___)(____)  (____/(____/(____/
               ESTACION DE PACKET RADIO - BUENOS AIRES (GF05OM)
                   BOLETINES INFORMATIVOS PROGRAMADOS (BIP)
                  SOPORTE TECNICO - HELLOCODELINUX@GMAIL.COM

+----------------------------------------------------------------------------+
OSCAR 7
1  7530U 74089B   19090.55320993 -.00000025  00000-0  12568-3 0  9991
2  7530 101.7351  59.0544 0012338 138.4538 333.7016 12.53637439 30606
OSCAR 11 (UoSAT 2)
1 14781U 84021B   19090.55942957  .00000043  00000-0  11416-4 0  9995
2 14781  97.6192 118.9866 0007664 210.6031 149.4737 14.83072609887033
OSCAR 19 (LUSAT)
1 20442U 90005G   19090.06605659 -.00000006  00000-0  14046-4 0  9998
2 20442  98.6416  32.2313 0012353  29.1718 331.0153 14.32920800524976
EYESAT A
1 22825U 93061C   19090.01759855 -.00000004  00000-0  16625-4 0  9996
2 22825  98.8985  76.8575 0007574 226.1401 133.9155 14.30054338330560
ITAMSAT
1 22826U 93061D   19089.89791680 -.00000001 +00000-0 +17601-4 0  9995
2 22826 098.8925 076.7366 0008256 214.8722 145.1920 14.30387509330496
RADIO ROSTO
1 23439U 94085A   19090.13812131 -.00000037  00000-0  15701-3 0  9994
2 23439  64.8149 244.7718 0148061 128.5167 232.9138 11.27568306999080
JAS 2
1 24278U 96046B   19090.50466009 -.00000025  00000-0  71300-5 0  9991
2 24278  98.5252 254.7035 0351363  85.4352 278.6828 13.53090161117098
TECHSAT 1B
1 25397U 98043D   19089.92082396 -.00000017 +00000-0 +11574-4 0  9997
2 25397 098.6819 031.0618 0000143 270.8039 089.3123 14.23662533076302
ISS (ZARYA)
1 25544U 98067A   19090.51915509  .00002530  00000-0  48096-4 0  9995
2 25544  51.6429  27.3182 0002462 133.9390 212.8640 15.52466394163181
PCSAT
1 26931U 01043C   19089.86810315 -.00000060  00000-0  87542-5 0  9996
2 26931  67.0514 209.6612 0005596 276.5243  83.5221 14.30536544913555
SAUDISAT 1C
1 27607U 02058C   19090.04631595 -.00000022  00000-0  17840-4 0  9998
2 27607  64.5540 293.0997 0082380 271.6970  87.4697 14.75530574875282
CUTE-1
1 27844U 03031E   19090.15224288  .00000044  00000-0  39581-4 0  9991
2 27844  98.6867  99.5461 0008672 260.1665  99.8534 14.22167205816984
CUBESAT XI 4
1 27848U 03031J   19090.54402656  .00000036  00000-0  36283-4 0  9992
2 27848  98.6946 100.4141 0008537 271.5563  88.4637 14.21763845816895
MOZHAYETS 4
1 27939U 03042A   19090.50629025  .00000115  00000-0  29138-4 0  9991
2 27939  98.0259 227.9258 0011834 323.4999  36.5413 14.66764167828936
CUBESAT XI 5
1 28895U 05043F   19090.13891025  .00000107  00000-0  29485-4 0  9992
2 28895  97.9455 235.6552 0015659 240.2125 119.7521 14.63642781715846
CUTE-1.7+APD II
1 32785U 08021C   19090.21639575  .00000197  00000-0  26904-4 0  9995
2 32785  97.5496  93.6835 0013548 160.1840 199.9907 14.88269798591867
DELFI C3
1 32789U 08021G   19089.86548247 +.00000854 +00000-0 +61416-4 0  9990
2 32789 097.4743 141.9089 0013264 045.4027 314.8280 15.06752576594845
SEEDS
1 32791U 08021J   19090.50237504  .00000383  00000-0  44270-4 0  9993
2 32791  97.5302  99.8387 0014456 136.9396 223.2956 14.90762339592314
YUBELEINY
1 32953U 08025A   19090.36780235  .00000020  00000-0  75656-4 0  9995
2 32953  82.5075 194.0831 0017825 303.6820  56.2551 12.43088334492456
PRISM (HITOMI)
1 33493U 09002B   19090.50160024  .00000505  00000-0  49853-4 0  9993
2 33493  98.1222   8.4570 0016442  85.8373 274.4726 14.96554313553302
KKS-1 (KISEKI)
1 33499U 09002H   19090.53182326  .00000075  00000-0  19153-4 0  9993
2 33499  98.3549 286.6895 0010485  97.7317 262.5082 14.75418090547554
SWISSCUBE
1 35932U 09051B   19089.68871585  .00000124  00000-0  38980-4 0  9991
2 35932  98.5782 253.3580 0008511  57.2136 302.9879 14.56257425505131
BEESAT
1 35933U 09051C   19090.45242965  .00000103  00000-0  34162-4 0  9998
2 35933  98.5816 255.8618 0006869  67.9010 292.2915 14.56350267505356
ITUPSAT 1
1 35935U 09051E   19090.18954269  .00000063  00000-0  25713-4 0  9994
2 35935  98.5927 255.8342 0009144  64.1299 296.0839 14.55513650505074
XIWANG-1 (HOPE-1)
1 36122U 09072B   19090.46283866 -.00000048  00000-0 -15926-4 0  9995
2 36122 100.0756  96.5693 0007951 163.3455 196.7926 13.16348650446452
TISAT 1
1 36799U 10035E   19089.89227553 +.00000453 +00000-0 +51881-4 0  9990
2 36799 098.1432 239.4549 0011941 354.1843 005.9234 14.91037461472678
JUGNU
1 37839U 11058B   19090.20271727  .00000318  00000-0  27423-4 0  9996
2 37839  19.9609  96.8019 0018999 169.8816 270.5546 14.12645797386006
SRMSAT
1 37841U 11058D   19090.57531097  .00000298  00000-0  18498-4 0  9997
2 37841  19.9710 149.6833 0012068  47.9445  99.4075 14.10627679385504
M-CUBED/EXP-1 PRIME
1 37855U 11061F   19089.63909226  .00000595  00000-0  38198-4 0  9993
2 37855 101.7262 304.1036 0174136 314.0951  44.6039 15.05222969404736
HORYU 2
1 38340U 12025D   19089.83687576  .00000139  00000-0  28308-4 0  9993
2 38340  98.3389 125.9915 0011904  25.2581 334.9207 14.75684420369388
STRAND 1
1 39090U 13009E   19090.51161987  .00000031  00000-0  26255-4 0  9999
2 39090  98.4968 297.7609 0009521 157.5320 202.6285 14.35075978319037
SOMP
1 39134U 13015E   19089.88346578  .00000947  00000-0  53063-4 0  9997
2 39134  64.8622 278.9588 0023439 315.8592  44.0664 15.19933856328468
BEESAT 3
1 39135U 13015F   19090.06030151  .00000561  00000-0  37829-4 0  9991
2 39135  64.8667 295.5885 0010441 306.3804  53.6358 15.17282784328161
BEESAT 2
1 39136U 13015G   19090.52940572  .00000531  00000-0  36897-4 0  9991
2 39136  64.8685 297.6551 0011804 301.2015  58.7954 15.16727353328160
CUBEBUG 1
1 39153U 13018D   19090.48773444  .00000163  00000-0  28185-4 0  9992
2 39153  97.9742 189.0822 0018402  95.4192 264.9120 14.80531854320105
ZACUBE
1 39417U 13066B   19090.52558934  .00000177  00000-0  28780-4 0  9994
2 39417  97.5677 108.4564 0057499 294.1763  65.3446 14.81075604289329
TRITON 1
1 39427U 13066M   19089.90181290  .00000227  00000-0  43799-4 0  9995
2 39427  97.6692  72.2444 0115260  61.3267 299.9469 14.67798877286636
GOMX 1
1 39430U 13066Q   19090.49285283  .00000171  00000-0  39591-4 0  9995
2 39430  97.7383  52.3071 0151788 143.4440 217.7226 14.59212575285054
HUMSAT D
1 39433U 13066T   19089.88085449  .00000523  00000-0  56370-4 0  9996
2 39433  97.5641 140.6071 0030291 204.2455 155.7341 14.92116042291178
CUBEBUG 2
1 39440U 13066AA  19090.15412375  .00000209  00000-0  36160-4 0  9994
2 39440  97.6019  93.2910 0079882 344.4792  15.3969 14.75813970288247
FUNCUBE 1
1 39444U 13066AE  19090.50210938  .00000225  00000-0  34156-4 0  9999
2 39444  97.5664 110.2999 0056569 288.3026  71.2039 14.81885691288207
UWE-3
1 39446U 13066AG  19090.49748481  .00000191  00000-0  32119-4 0  9997
2 39446  97.5835 100.5332 0069004 319.4866  40.1220 14.78348825287562
SPROUT
1 39770U 14029E   19090.51290323  .00000415  00000-0  52242-4 0  9995
2 39770  97.8801 194.3616 0008653 356.0850   4.0299 14.87229670263067
UNISAT 6
1 40012U 14033C   19090.11362699  .00000134  00000-0  27434-4 0  9996
2 40012  97.7699 320.0969 0058345 356.0497   4.0243 14.73942956256965
DUCHIFAT 1
1 40021U 14033M   19090.53372858  .00000461  00000-0  53039-4 0  9993
2 40021  97.9226  14.8773 0011993 316.6604  43.3670 14.90559121259751
QB50P1
1 40025U 14033R   19090.53376724  .00000243  00000-0  31892-4 0  9994
2 40025  97.9064  10.3465 0011668 326.0052  34.0416 14.88891751259542
CHUBUSAT 1
1 40300U 14070C   19090.29833569  .00000559  00000-0  27429-4 0  9990
2 40300  97.3344 166.4719 0019517 339.6640  60.6477 15.21967745243946
NUDT-PHONESAT
1 40900U 15049B   19090.38974245  .00001905  00000-0  85223-4 0  9992
2 40900  97.4405 100.5149 0014816 101.0559   6.2897 15.22433168195591
ZDPS 2A
1 40901U 15049C   19090.56188255  .00000768  00000-0  41504-4 0  9991
2 40901  97.4616  97.5342 0015294 114.5766   3.9622 15.17574115195239
ZDPS 2B
1 40902U 15049D   19090.51714289  .00000523  00000-0  29509-4 0  9999
2 40902  97.4550  95.0948 0015263 112.1502  43.5205 15.17345472195206
XW-2A
1 40903U 15049E   19090.46739929  .00001913  00000-0  47488-4 0  9992
2 40903  97.3488 132.7524 0015730  75.8035  37.8423 15.41523323198043
KAITUO 1A
1 40904U 15049F   19090.50273763  .00000247  00000-0  16613-4 0  9992
2 40904  97.4672  93.8744 0016089 118.1075  33.2904 15.15281212195000
OBJECT G
1 40905U 15049G   19090.52077256  .00000432  00000-0  27137-4 0  9993
2 40905  97.4701  91.5439 0017255 113.4441   2.7904 15.14217366194896
XW-2C
1 40906U 15049H   19090.45525662  .00000376  00000-0  23269-4 0  9994
2 40906  97.4681  93.8555 0016468 111.1507  51.7700 15.15558660194996
XW-2D
1 40907U 15049J   19090.56583848  .00000410  00000-0  24905-4 0  9994
2 40907  97.4661  93.6433 0016123 107.7935   7.9487 15.15737374195023
LILACSAT 2
1 40908U 15049K   19090.40601792  .00000589  00000-0  36218-4 0  9994
2 40908  97.4785  92.4564 0017399 113.2396 352.8722 15.13734699194817
XW-2F
1 40910U 15049M   19090.40213231  .00001132  00000-0  60305-4 0  9993
2 40910  97.4636  95.3165 0016814 103.5008   6.9582 15.17114149194993
XW-2B
1 40911U 15049N   19090.39542510  .00000793  00000-0  45035-4 0  9992
2 40911  97.4686  94.1033 0015954 109.5579 358.2844 15.15673700194897
KAITUO 1B
1 40912U 15049P   19090.29282071  .00001144  00000-0  57097-4 0  9997
2 40912  97.4523  98.6812 0017003  89.9232  38.0488 15.19401158195254
TIANWANG 1C (TW-1C)
1 40926U 15051B   19090.49539447  .00010354  00000-0  16188-3 0  9997
2 40926  97.1465 136.8225 0006909 314.6072 153.5736 15.53936651197853
